Location: Saint-Gilles les Bains
(21.0539°S, 55.2287°E)
Time: 14:05:14
(UTC+04:00)

ISS - Visible Passes

Search period start: 21 July 2018 00:00
Search period end: 31 July 2018 00:00
Orbit: 402 x 408 km, 51.6° (Epoch: 21 July)

Date Brightness Start Highest point End Pass type
(mag) Time Alt. Az. Time Alt. Az. Time Alt. Az.
22 Jul -0.3 06:07:21 10° NNE 06:08:50 12° NE 06:10:20 10° E visible
24 Jul -2.4 05:57:39 10° NNW 06:00:48 42° NE 06:03:57 10° SE visible
25 Jul -0.9 05:06:30 10° NNE 05:08:44 17° NE 05:11:00 10° E visible
26 Jul -3.6 05:51:09 24° WNW 05:52:49 47° SW 05:56:03 10° SSE visible
27 Jul -1.4 05:02:51 19° SE 05:02:51 19° SE 05:03:56 10° SE visible
28 Jul -1.3 05:46:44 11° S 05:46:44 11° S 05:47:02 10° S visible
